Memphis, TN

4:46 PM CDT on July 20, 2017 (GMT -0500)
Memphis International

Weather History for KMEM - January, 2013

Change the Weather History Date:

Wednesday, January 30, 2013

  Actual Average Record
Temperature  
Mean Temperature 50 °F 42 °F  
Max Temperature 65 °F 51 °F 77 °F (2002)
Min Temperature 35 °F 33 °F 2 °F (1966)
Degree Days  
Heating Degree Days 15 23  
Month to date heating degree days 602 715  
Since 1 July heating degree days 1629 1879  
Cooling Degree Days 0 0  
Month to date cooling degree days 9 0  
Year to date cooling degree days 9 0  
Moisture  
Dew Point 43 °F    
Average Humidity 75    
Maximum Humidity 93    
Minimum Humidity 57    
Precipitation  
Precipitation 1.55 in 0.13 in 2.44 in (1950)
Month to date precipitation 9.72 3.84  
Year to date precipitation 9.72 3.84  
Snow  
Snow 0.00 in 0.00 in 6.00 in (1882)
Month to date snowfall T 1.8  
Since 1 July snowfall 0.9 2.0  
Snow Depth 0.00 in    
Sea Level Pressure  
Sea Level Pressure 29.68 in    
Wind  
Wind Speed 14 mph (West)    
Max Wind Speed 33 mph    
Max Gust Speed 47 mph    
Visibility 8 miles    
Events Fog , Rain , Thunderstorm    
T = Trace of Precipitation, MM = Missing Value Source: NWS Daily Summary

Daily Weather History Graph

Daily Weather History Graph

Search for Another Location

Airport or City:

Trip Planner

Search our weather history database for the weather conditions in past years. The results will help you decide how hot, cold, wet, or windy it might be!

Date:

Astronomy

Jan. 30, 2013 Rise Set
Actual Time 7:00 AM CST 5:26 PM CST
Civil Twilight 6:33 AM CST 5:53 PM CST
Nautical Twilight 6:02 AM CST 6:23 PM CST
Astronomical Twilight 5:33 AM CST 6:53 PM CST
Moon 9:13 PM CST (1/30) 8:38 AM CST (1/30)
Length of Visible Light 11h 20m
Length of Day
10h 26m
Waning Gibbous, 87% of the Moon is Illuminated
Jan 30
Waning Gibbous
Feb 3
Last Quarter
Feb 10
New
Feb 17
First Quarter
Feb 25
Full

Hourly Weather History & Observations

Time (CST) Temp. Windchill Dew Point Humidity Pressure Visibility Wind Dir Wind Speed Gust Speed Precip Events Conditions
12:02 AM 62.6 °F - 60.8 °F 94% 29.56 in 0.5 mi WNW 27.6 mph 47.2 mph 0.28 in Fog , Rain , Thunderstorm Heavy Thunderstorms and Rain
12:06 AM 57.2 °F - 55.4 °F 94% 29.58 in 0.5 mi NW 21.9 mph 47.2 mph 0.46 in Fog , Rain , Thunderstorm Heavy Thunderstorms and Rain
12:15 AM 55.4 °F - 53.6 °F 94% 29.59 in 1.0 mi NW 18.4 mph 32.2 mph 0.71 in Rain , Thunderstorm Heavy Thunderstorms and Rain
12:27 AM 55.4 °F - 53.6 °F 94% 29.60 in 1.0 mi NNW 17.3 mph 23.0 mph 0.94 in Rain , Thunderstorm Heavy Thunderstorms and Rain
12:38 AM 55.4 °F - 53.6 °F 94% 29.62 in 2.0 mi Variable 6.9 mph 27.6 mph 1.02 in Rain Heavy Rain
12:54 AM 55.0 °F - 53.1 °F 93% 29.61 in 2.0 mi North 4.6 mph - 1.13 in Rain Heavy Rain
1:03 AM 55.4 °F - 53.6 °F 94% 29.59 in 3.0 mi North 5.8 mph - 0.04 in Rain Heavy Rain
1:10 AM 55.4 °F - 53.6 °F 94% 29.59 in 4.0 mi North 5.8 mph - 0.06 in Rain Rain
1:54 AM 55.9 °F - 53.1 °F 90% 29.59 in 6.0 mi NE 4.6 mph - 0.15 in Rain Rain
2:37 AM 55.4 °F - 53.6 °F 94% 29.62 in 4.0 mi SSE 4.6 mph - 0.17 in Rain Heavy Rain
2:42 AM 55.4 °F - 53.6 °F 94% 29.62 in 5.0 mi SSE 5.8 mph - 0.20 in Rain Heavy Rain
2:54 AM 55.9 °F - 53.1 °F 90% 29.61 in 5.0 mi SSE 5.8 mph - 0.23 in Rain Light Rain
3:03 AM 55.4 °F - 53.6 °F 94% 29.60 in 6.0 mi SSE 3.5 mph - 0.01 in Rain Rain
3:08 AM 55.4 °F - 53.6 °F 94% 29.61 in 6.0 mi SSE 5.8 mph - 0.03 in Rain Rain
3:47 AM 55.4 °F - 53.6 °F 94% 29.62 in 4.0 mi South 6.9 mph - 0.18 in Rain Rain
3:54 AM 55.0 °F - 54.0 °F 96% 29.61 in 4.0 mi South 6.9 mph - 0.20 in Rain Rain
4:54 AM 55.0 °F - 52.0 °F 89% 29.54 in 10.0 mi South 10.4 mph - 0.04 in   Overcast
5:54 AM 55.0 °F - 51.1 °F 86% 29.55 in 10.0 mi SSW 12.7 mph - N/A   Mostly Cloudy
6:54 AM 54.0 °F - 51.1 °F 90% 29.56 in 10.0 mi SSW 9.2 mph - N/A   Mostly Cloudy
7:54 AM 55.0 °F - 51.1 °F 86% 29.58 in 10.0 mi SSW 17.3 mph 26.5 mph N/A   Mostly Cloudy
8:54 AM 57.0 °F - 50.0 °F 77% 29.57 in 10.0 mi WSW 16.1 mph 20.7 mph N/A   Mostly Cloudy
9:50 AM 55.4 °F - 46.4 °F 72% 29.58 in 10.0 mi SW 19.6 mph 29.9 mph N/A   Overcast
9:54 AM 55.9 °F - 46.0 °F 69% 29.58 in 10.0 mi SW 21.9 mph 29.9 mph N/A   Overcast
10:39 AM 55.4 °F - 44.6 °F 67% 29.61 in 10.0 mi WSW 16.1 mph 21.9 mph N/A   Overcast
10:51 AM 55.4 °F - 44.6 °F 67% 29.62 in 10.0 mi WSW 17.3 mph 25.3 mph N/A   Overcast
10:54 AM 55.0 °F - 44.1 °F 67% 29.63 in 10.0 mi WSW 15.0 mph 25.3 mph N/A   Overcast
11:47 AM 53.6 °F - 42.8 °F 67% 29.60 in 10.0 mi WSW 13.8 mph 23.0 mph N/A   Overcast
11:54 AM 54.0 °F - 44.1 °F 69% 29.61 in 10.0 mi West 19.6 mph 25.3 mph N/A   Overcast
12:14 PM 51.8 °F - 41.0 °F 67% 29.61 in 10.0 mi West 19.6 mph 32.2 mph N/A   Overcast
12:54 PM 50.0 °F - 39.0 °F 66% 29.64 in 10.0 mi West 19.6 mph 29.9 mph N/A   Overcast
1:09 PM 48.2 °F - 37.4 °F 66% 29.63 in 10.0 mi West 20.7 mph 38.0 mph N/A   Overcast
1:49 PM 48.2 °F - 35.6 °F 62% 29.66 in 10.0 mi WSW 18.4 mph 33.4 mph N/A   Overcast
1:54 PM 46.9 °F - 36.0 °F 66% 29.66 in 10.0 mi West 16.1 mph 31.1 mph N/A   Overcast
2:54 PM 43.0 °F 34.5 °F 34.0 °F 71% 29.71 in 8.0 mi West 19.6 mph 28.8 mph 0.00 in Rain Light Rain
3:02 PM 44.6 °F 37.2 °F 33.8 °F 66% 29.72 in 10.0 mi WNW 17.3 mph 25.3 mph 0.00 in Rain Light Rain
3:20 PM 44.6 °F 38.1 °F 33.8 °F 66% 29.73 in 10.0 mi West 13.8 mph 23.0 mph 0.00 in   Overcast
3:54 PM 45.0 °F 36.0 °F 30.9 °F 58% 29.75 in 10.0 mi WNW 25.3 mph 32.2 mph 0.00 in   Overcast
4:54 PM 43.0 °F 34.5 °F 28.9 °F 58% 29.78 in 10.0 mi NW 19.6 mph 31.1 mph N/A   Mostly Cloudy
5:54 PM 39.9 °F 31.1 °F 26.1 °F 58% 29.85 in 10.0 mi NW 17.3 mph 29.9 mph N/A   Partly Cloudy
6:54 PM 37.9 °F 30.5 °F 26.1 °F 62% 29.89 in 10.0 mi NW 11.5 mph - N/A   Partly Cloudy
7:54 PM 37.9 °F 29.2 °F 26.1 °F 62% 29.94 in 10.0 mi WNW 15.0 mph 26.5 mph N/A   Partly Cloudy
8:54 PM 37.0 °F 27.7 °F 25.0 °F 62% 29.98 in 10.0 mi NW 16.1 mph 24.2 mph N/A   Scattered Clouds
9:54 PM 36.0 °F 28.0 °F 25.0 °F 64% 30.01 in 10.0 mi WNW 11.5 mph - N/A   Partly Cloudy
10:54 PM 35.1 °F 28.6 °F 25.0 °F 67% 30.03 in 10.0 mi WNW 8.1 mph - N/A   Clear
11:54 PM 35.1 °F 26.4 °F 25.0 °F 67% 30.04 in 10.0 mi WNW 12.7 mph 21.9 mph N/A   Clear